| time (UTC) | temp F | wind direction | speed knots | gust knots | rain 1hr in | rain 24hr in | rain mn in | humidity % | barometer mb |
| 20260906045106 | 78 | 236 | 0.0 | 0.9 | 0.00 | 0.04 | 0.00 | 94 | 1013.7 |
| 20260906044240 | 78 | 238 | 1.7 | 5.2 | 0.00 | 0.04 | 0.00 | 93 | 1013.7 |
| 20260906044036 | 78 | 238 | 1.7 | 5.2 | 0.00 | 0.04 | 0.00 | 93 | 1013.7 |
| 20260906043728 | 78 | 238 | 2.6 | 5.2 | 0.00 | 0.04 | 0.00 | 94 | 1013.6 |
| 20260906043505 | 78 | 238 | 2.6 | 5.2 | 0.00 | 0.04 | 0.00 | 94 | 1013.6 |
| 20260906035806 | 78 | 239 | 1.7 | 4.3 | 0.00 | 0.04 | 0.04 | 94 | 1013.8 |
| 20260906035306 | 79 | 241 | 2.6 | 7.0 | 0.00 | 0.04 | 0.04 | 93 | 1013.9 |
| 20260906033705 | 79 | 230 | 1.7 | 7.0 | 0.00 | 0.04 | 0.04 | 92 | 1013.6 |
| 20260906032705 | 79 | 231 | 1.7 | 4.3 | 0.00 | 0.04 | 0.04 | 92 | 1013.7 |
| 20260906032136 | 80 | 204 | 1.7 | 5.2 | 0.00 | 0.04 | 0.04 | 91 | 1013.9 |
| 20260906031635 | 80 | 202 | 1.7 | 5.2 | 0.00 | 0.04 | 0.04 | 91 | 1013.8 |
| 20260906031334 | 80 | 208 | 1.7 | 6.1 | 0.00 | 0.04 | 0.04 | 91 | 1013.8 |
| 20260906031136 | 80 | 208 | 1.7 | 6.1 | 0.00 | 0.04 | 0.04 | 91 | 1013.8 |
| 20260906030818 | 80 | 199 | 1.7 | 6.1 | 0.00 | 0.04 | 0.04 | 91 | 1013.9 |
| 20260906030635 | 80 | 199 | 1.7 | 6.1 | 0.00 | 0.04 | 0.04 | 91 | 1013.9 |
| 20260906030106 | 80 | 195 | 1.7 | 3.5 | 0.00 | 0.04 | 0.04 | 91 | 1013.8 |
| 20260906025606 | 80 | 187 | 2.6 | 7.8 | 0.00 | 0.04 | 0.04 | 90 | 1013.8 |
| 20260906025035 | 80 | 182 | 2.6 | 6.1 | 0.00 | 0.04 | 0.04 | 90 | 1013.7 |
| 20260906024535 | 80 | 186 | 1.7 | 7.0 | 0.00 | 0.04 | 0.04 | 90 | 1013.7 |
| 20260906024006 | 80 | 198 | 1.7 | 7.0 | 0.00 | 0.04 | 0.04 | 89 | 1013.9 |
| 20260906023614 | 80 | 195 | 1.7 | 5.2 | 0.00 | 0.04 | 0.04 | 89 | 1013.8 |
| 20260906023435 | 80 | 195 | 1.7 | 5.2 | 0.00 | 0.04 | 0.04 | 89 | 1013.8 |
| 20260906023104 | 80 | 192 | 1.7 | 5.2 | 0.00 | 0.04 | 0.04 | 89 | 1013.8 |
| 20260906022906 | 80 | 192 | 1.7 | 5.2 | 0.00 | 0.04 | 0.04 | 89 | 1013.8 |
| 20260906021835 | 81 | 177 | 2.6 | 5.2 | 0.00 | 0.04 | 0.04 | 89 | 1014.1 |
| 20260906021305 | 81 | 182 | 1.7 | 5.2 | 0.00 | 0.04 | 0.04 | 89 | 1014.0 |
| 20260906020736 | 81 | 197 | 1.7 | 6.1 | 0.00 | 0.04 | 0.04 | 88 | 1013.8 |
| 20260906014833 | 81 | 172 | 1.7 | 6.1 | 0.00 | 0.04 | 0.04 | 88 | 1013.9 |
| 20260906014635 | 81 | 172 | 1.7 | 6.1 | 0.00 | 0.04 | 0.04 | 88 | 1013.9 |
| 20260906013536 | 81 | 112 | 2.6 | 9.6 | 0.00 | 0.04 | 0.04 | 90 | 1013.7 |
| 20260906013006 | 80 | 109 | 1.7 | 9.6 | 0.00 | 0.04 | 0.04 | 92 | 1013.7 |
| 20260906011935 | 80 | 178 | 0.0 | 0.9 | 0.00 | 0.04 | 0.04 | 91 | 1013.4 |
| 20260906011701 | 80 | 178 | 0.0 | 0.9 | 0.00 | 0.04 | 0.04 | 91 | 1013.3 |
| 20260906011436 | 80 | 178 | 0.0 | 0.9 | 0.00 | 0.04 | 0.04 | 91 | 1013.3 |
| 20260906011155 | 80 | 178 | 0.0 | 0.9 | 0.00 | 0.04 | 0.04 | 91 | 1013.1 |
| 20260906010905 | 80 | 178 | 0.0 | 0.9 | 0.00 | 0.04 | 0.04 | 91 | 1013.1 |
| 20260906010625 | 80 | 178 | 0.0 | 0.9 | 0.00 | 0.04 | 0.04 | 91 | 1013.0 |
| 20260906010336 | 80 | 178 | 0.0 | 0.9 | 0.00 | 0.04 | 0.04 | 91 | 1013.0 |
| 20260906004305 | 81 | 178 | 0.0 | 0.9 | 0.00 | 0.04 | 0.04 | 89 | 1013.0 |
| 20260906004111 | 81 | 0 | 0.0 | 0.0 | 0.00 | 0.04 | 0.04 | 88 | 1013.0 |
| 20260906003806 | 81 | 0 | 0.0 | 0.0 | 0.00 | 0.04 | 0.04 | 88 | 1013.0 |
| 20260906003534 | 81 | 0 | 0.0 | 0.0 | 0.00 | 0.04 | 0.04 | 89 | 1012.9 |
| 20260906003307 | 81 | 0 | 0.0 | 0.0 | 0.00 | 0.04 | 0.04 | 89 | 1012.9 |
| 20260906003231 | 81 | 178 | 0.0 | 0.9 | 0.00 | 0.04 | 0.04 | 88 | 1013.0 |
| 20260906002806 | 81 | 178 | 0.0 | 0.9 | 0.00 | 0.04 | 0.04 | 88 | 1013.0 |
| 20260906002611 | 81 | 169 | 0.0 | 0.9 | 0.00 | 0.04 | 0.04 | 89 | 1013.0 |
| 20260906002306 | 81 | 169 | 0.0 | 0.9 | 0.00 | 0.04 | 0.04 | 89 | 1013.0 |
| 20260906001944 | 82 | 135 | 0.0 | 0.9 | 0.00 | 0.04 | 0.04 | 89 | 1013.0 |
| 20260906001736 | 82 | 135 | 0.0 | 0.9 | 0.00 | 0.04 | 0.04 | 89 | 1013.0 |
| 20260906001528 | 82 | 146 | 0.9 | 1.7 | 0.00 | 0.04 | 0.04 | 89 | 1013.1 |
| 20260906001205 | 82 | 146 | 0.9 | 1.7 | 0.00 | 0.04 | 0.04 | 89 | 1013.1 |
| 20260906000831 | 82 | 169 | 0.9 | 1.7 | 0.00 | 0.04 | 0.04 | 89 | 1013.1 |
| 20260906000635 | 82 | 169 | 0.9 | 1.7 | 0.00 | 0.04 | 0.04 | 89 | 1013.1 |
| 20260906000105 | 82 | 183 | 0.9 | 1.7 | 0.00 | 0.04 | 0.04 | 89 | 1013.0 |
| 20260905234535 | 82 | 148 | 0.0 | 2.6 | 0.00 | 0.04 | 0.04 | 88 | 1012.5 |
| 20260905233629 | 82 | 180 | 0.9 | 1.7 | 0.00 | 0.04 | 0.04 | 88 | 1012.3 |
| 20260905233506 | 82 | 180 | 0.9 | 1.7 | 0.00 | 0.04 | 0.04 | 88 | 1012.3 |
| 20260905233309 | 82 | 227 | 0.9 | 2.6 | 0.00 | 0.04 | 0.04 | 88 | 1012.4 |
| 20260905233005 | 82 | 227 | 0.9 | 2.6 | 0.00 | 0.04 | 0.04 | 88 | 1012.4 |
| 20260905232705 | 83 | 215 | 0.0 | 2.6 | 0.00 | 0.04 | 0.04 | 88 | 1012.4 |
| 20260905232505 | 83 | 215 | 0.0 | 2.6 | 0.00 | 0.04 | 0.04 | 88 | 1012.4 |
| 20260905231935 | 83 | 114 | 0.9 | 3.5 | 0.00 | 0.04 | 0.04 | 88 | 1012.6 |
| 20260905231708 | 83 | 102 | 1.7 | 3.5 | 0.00 | 0.04 | 0.04 | 88 | 1012.7 |
| 20260905231436 | 83 | 102 | 1.7 | 3.5 | 0.00 | 0.04 | 0.04 | 88 | 1012.7 |
| 20260905230905 | 83 | 97 | 1.7 | 3.5 | 0.00 | 0.04 | 0.04 | 88 | 1012.6 |
| 20260905230115 | 83 | 111 | 0.9 | 3.5 | 0.00 | 0.04 | 0.04 | 89 | 1012.7 |
| 20260905225835 | 83 | 111 | 0.9 | 3.5 | 0.00 | 0.04 | 0.04 | 89 | 1012.7 |
| 20260905225336 | 83 | 153 | 0.9 | 3.5 | 0.00 | 0.04 | 0.04 | 89 | 1012.7 |
| 20260905225119 | 83 | 145 | 1.7 | 5.2 | 0.04 | 0.04 | 0.04 | 90 | 1012.7 |
| 20260905224835 | 83 | 145 | 1.7 | 5.2 | 0.04 | 0.04 | 0.04 | 90 | 1012.7 |
| 20260905223835 | 82 | 102 | 0.9 | 3.5 | 0.04 | 0.04 | 0.04 | 90 | 1012.8 |
| 20260905223603 | 82 | 109 | 0.9 | 2.6 | 0.04 | 0.04 | 0.04 | 89 | 1012.7 |
| 20260905223335 | 82 | 109 | 0.9 | 2.6 | 0.04 | 0.04 | 0.04 | 89 | 1012.7 |
| 20260905223119 | 82 | 93 | 0.9 | 2.6 | 0.04 | 0.04 | 0.04 | 88 | 1012.7 |
| 20260905222836 | 82 | 93 | 0.9 | 2.6 | 0.04 | 0.04 | 0.04 | 88 | 1012.7 |
| 20260905222021 | 82 | 53 | 0.9 | 1.7 | 0.04 | 0.04 | 0.04 | 89 | 1012.7 |
| 20260905221805 | 82 | 53 | 0.9 | 1.7 | 0.04 | 0.04 | 0.04 | 89 | 1012.7 |
| 20260905221041 | 82 | 36 | 1.7 | 4.3 | 0.04 | 0.04 | 0.04 | 90 | 1012.8 |
| 20260905220735 | 82 | 36 | 1.7 | 4.3 | 0.04 | 0.04 | 0.04 | 90 | 1012.8 |
| 20260905220456 | 82 | 29 | 1.7 | 4.3 | 0.04 | 0.04 | 0.04 | 87 | 1012.9 |
| 20260905220206 | 82 | 29 | 1.7 | 4.3 | 0.04 | 0.04 | 0.04 | 87 | 1012.9 |
| 20260905215135 | 85 | 17 | 2.6 | 7.0 | 0.02 | 0.02 | 0.02 | 78 | 1012.7 |
| 20260905214841 | 86 | 24 | 2.6 | 4.3 | 0.00 | 0.00 | 0.00 | 81 | 1012.8 |
| 20260905214605 | 86 | 24 | 2.6 | 4.3 | 0.00 | 0.00 | 0.00 | 81 | 1012.8 |
| 20260905214105 | 86 | 38 | 1.7 | 3.5 | 0.00 | 0.00 | 0.00 | 79 | 1012.9 |
| 20260905213759 | 86 | 39 | 1.7 | 3.5 | 0.00 | 0.00 | 0.00 | 80 | 1012.8 |
| 20260905213605 | 86 | 39 | 1.7 | 3.5 | 0.00 | 0.00 | 0.00 | 80 | 1012.8 |
| 20260905213405 | 86 | 20 | 2.6 | 5.2 | 0.00 | 0.00 | 0.00 | 80 | 1012.8 |
| 20260905213106 | 86 | 20 | 2.6 | 5.2 | 0.00 | 0.00 | 0.00 | 80 | 1012.8 |
| 20260905212823 | 85 | 23 | 1.7 | 5.2 | 0.00 | 0.00 | 0.00 | 80 | 1012.7 |
| 20260905212535 | 85 | 23 | 1.7 | 5.2 | 0.00 | 0.00 | 0.00 | 80 | 1012.7 |
| 20260905210935 | 85 | 280 | 1.7 | 6.1 | 0.00 | 0.00 | 0.00 | 80 | 1012.7 |
| 20260905210405 | 85 | 280 | 2.6 | 6.1 | 0.00 | 0.00 | 0.00 | 78 | 1012.5 |
| 20260905205905 | 85 | 274 | 3.5 | 7.8 | 0.00 | 0.00 | 0.00 | 75 | 1012.6 |
| 20260905204835 | 86 | 274 | 4.3 | 10.4 | 0.00 | 0.00 | 0.00 | 74 | 1012.7 |
| 20260905204305 | 88 | 274 | 4.3 | 10.4 | 0.00 | 0.00 | 0.00 | 76 | 1012.6 |
| 20260905203735 | 88 | 270 | 3.5 | 6.1 | 0.00 | 0.00 | 0.00 | 72 | 1012.6 |
| 20260905203538 | 89 | 271 | 4.3 | 11.3 | 0.00 | 0.00 | 0.00 | 72 | 1012.5 |
| 20260905203235 | 89 | 271 | 4.3 | 11.3 | 0.00 | 0.00 | 0.00 | 72 | 1012.5 |
| 20260905202705 | 90 | 272 | 3.5 | 11.3 | 0.00 | 0.00 | 0.00 | 70 | 1012.4 |
| 20260905202205 | 92 | 281 | 2.6 | 8.7 | 0.00 | 0.00 | 0.00 | 71 | 1012.3 |
| 20260905201635 | 93 | 305 | 1.7 | 5.2 | 0.00 | 0.00 | 0.00 | 70 | 1012.3 |
| 20260905201105 | 93 | 301 | 1.7 | 6.1 | 0.00 | 0.00 | 0.00 | 66 | 1012.4 |
| 20260905200605 | 94 | 290 | 1.7 | 6.1 | 0.00 | 0.00 | 0.00 | 64 | 1012.3 |
| 20260905200358 | 94 | 289 | 1.7 | 5.2 | 0.00 | 0.00 | 0.00 | 64 | 1012.4 |
| 20260905200105 | 94 | 289 | 1.7 | 5.2 | 0.00 | 0.00 | 0.00 | 64 | 1012.4 |
| 20260905195535 | 94 | 292 | 2.6 | 7.0 | 0.00 | 0.00 | 0.00 | 65 | 1012.5 |
| 20260905195005 | 94 | 288 | 2.6 | 7.0 | 0.00 | 0.00 | 0.00 | 65 | 1012.4 |
| 20260905194435 | 94 | 287 | 1.7 | 5.2 | 0.00 | 0.00 | 0.00 | 66 | 1012.5 |
| 20260905193935 | 93 | 284 | 1.7 | 7.0 | 0.00 | 0.00 | 0.00 | 68 | 1012.4 |
| 20260905193405 | 93 | 272 | 1.7 | 7.0 | 0.00 | 0.00 | 0.00 | 68 | 1012.6 |
| 20260905192835 | 93 | 263 | 2.6 | 8.7 | 0.00 | 0.00 | 0.00 | 68 | 1012.7 |
| 20260905192549 | 92 | 262 | 3.5 | 8.7 | 0.00 | 0.00 | 0.00 | 68 | 1012.7 |
| 20260905192306 | 92 | 262 | 3.5 | 8.7 | 0.00 | 0.00 | 0.00 | 68 | 1012.7 |
| 20260905191646 | 93 | 298 | 1.7 | 6.1 | 0.00 | 0.00 | 0.00 | 67 | 1012.9 |
| 20260905191235 | 93 | 298 | 1.7 | 6.1 | 0.00 | 0.00 | 0.00 | 67 | 1012.9 |
| 20260905191140 | 94 | 303 | 1.7 | 6.1 | 0.00 | 0.00 | 0.00 | 67 | 1012.9 |
| 20260905190735 | 94 | 303 | 1.7 | 6.1 | 0.00 | 0.00 | 0.00 | 67 | 1012.9 |
| 20260905190624 | 94 | 302 | 1.7 | 5.2 | 0.00 | 0.00 | 0.00 | 68 | 1012.9 |
| 20260905190205 | 94 | 302 | 1.7 | 5.2 | 0.00 | 0.00 | 0.00 | 68 | 1012.9 |
| 20260905185705 | 94 | 306 | 1.7 | 5.2 | 0.00 | 0.00 | 0.00 | 68 | 1013.0 |
| 20260905185135 | 93 | 302 | 1.7 | 3.5 | 0.00 | 0.00 | 0.00 | 69 | 1013.1 |
| 20260905184635 | 93 | 299 | 2.6 | 7.8 | 0.00 | 0.00 | 0.00 | 66 | 1013.1 |
| 20260905184105 | 93 | 288 | 2.6 | 7.8 | 0.00 | 0.00 | 0.00 | 70 | 1013.0 |
| 20260905183535 | 92 | 287 | 2.6 | 5.2 | 0.00 | 0.00 | 0.00 | 73 | 1013.2 |
| 20260905182505 | 90 | 311 | 1.7 | 3.5 | 0.00 | 0.00 | 0.00 | 75 | 1013.1 |
| 20260905182005 | 90 | 287 | 2.6 | 7.0 | 0.00 | 0.00 | 0.00 | 72 | 1013.2 |
| 20260905181505 | 91 | 265 | 2.6 | 7.0 | 0.00 | 0.00 | 0.00 | 72 | 1013.3 |
| 20260905180935 | 93 | 253 | 2.6 | 6.1 | 0.00 | 0.00 | 0.00 | 68 | 1013.3 |
| 20260905180435 | 92 | 259 | 2.6 | 5.2 | 0.00 | 0.00 | 0.00 | 70 | 1013.3 |
| 20260905180212 | 92 | 253 | 2.6 | 5.2 | 0.00 | 0.00 | 0.00 | 71 | 1013.3 |
| 20260905175935 | 92 | 253 | 2.6 | 5.2 | 0.00 | 0.00 | 0.00 | 71 | 1013.3 |
| 20260905175405 | 91 | 241 | 1.7 | 6.1 | 0.00 | 0.00 | 0.00 | 72 | 1013.4 |
| 20260905174305 | 90 | 251 | 1.7 | 3.5 | 0.00 | 0.00 | 0.00 | 72 | 1013.5 |
| 20260905173805 | 90 | 253 | 1.7 | 3.5 | 0.00 | 0.00 | 0.00 | 71 | 1013.6 |
| 20260905173235 | 91 | 267 | 0.9 | 3.5 | 0.00 | 0.00 | 0.00 | 72 | 1013.7 |
| 20260905172705 | 91 | 269 | 0.9 | 3.5 | 0.00 | 0.00 | 0.00 | 71 | 1013.9 |
| 20260905171635 | 91 | 238 | 1.7 | 4.3 | 0.00 | 0.00 | 0.00 | 71 | 1013.9 |
| 20260905170635 | 91 | 325 | 0.9 | 2.6 | 0.00 | 0.00 | 0.00 | 71 | 1014.2 |
| 20260905170135 | 92 | 324 | 0.9 | 2.6 | 0.00 | 0.00 | 0.00 | 71 | 1014.4 |
| 20260905165105 | 92 | 303 | 0.9 | 2.6 | 0.00 | 0.00 | 0.00 | 73 | 1014.4 |
| 20260905165001 | 82 | 234 | 1.7 | 4.3 | 0.00 | 0.00 | 0.00 | 93 | 1015.3 |
| 20260905164957 | 82 | 227 | 1.7 | 4.3 | 0.00 | 0.00 | 0.00 | 93 | 1015.3 |
| 20260905164605 | 91 | 266 | 0.9 | 3.5 | 0.00 | 0.00 | 0.00 | 72 | 1014.6 |
| 20260905164035 | 91 | 240 | 0.9 | 3.5 | 0.00 | 0.00 | 0.00 | 74 | 1014.7 |
| 20260905163505 | 90 | 240 | 1.7 | 3.5 | 0.00 | 0.00 | 0.00 | 74 | 1014.7 |
| 20260905163005 | 89 | 251 | 1.7 | 4.3 | 0.00 | 0.00 | 0.00 | 75 | 1014.8 |
| 20260905162507 | 88 | 257 | 1.7 | 4.3 | 0.00 | 0.00 | 0.00 | 78 | 1014.9 |
| 20260905161935 | 88 | 259 | 1.7 | 3.5 | 0.00 | 0.00 | 0.00 | 77 | 1015.0 |
| 20260905161435 | 88 | 262 | 0.9 | 4.3 | 0.00 | 0.00 | 0.00 | 78 | 1014.9 |
| 20260905161305 | 88 | 261 | 1.7 | 4.3 | 0.00 | 0.00 | 0.00 | 78 | 1014.8 |
| 20260905160935 | 88 | 261 | 1.7 | 4.3 | 0.00 | 0.00 | 0.00 | 78 | 1014.8 |
| 20260905160750 | 88 | 262 | 0.9 | 3.5 | 0.00 | 0.00 | 0.00 | 79 | 1014.9 |
| 20260905160435 | 88 | 262 | 0.9 | 3.5 | 0.00 | 0.00 | 0.00 | 79 | 1014.9 |
| 20260905155935 | 88 | 241 | 0.9 | 4.3 | 0.00 | 0.00 | 0.00 | 80 | 1015.0 |
| 20260905155405 | 88 | 240 | 1.7 | 4.3 | 0.00 | 0.00 | 0.00 | 78 | 1015.0 |
| 20260905155158 | 88 | 246 | 1.7 | 3.5 | 0.00 | 0.00 | 0.00 | 78 | 1015.0 |
| 20260905154905 | 88 | 246 | 1.7 | 3.5 | 0.00 | 0.00 | 0.00 | 78 | 1015.0 |
| 20260905153305 | 87 | 245 | 0.9 | 2.6 | 0.00 | 0.00 | 0.00 | 80 | 1015.2 |
| 20260905152235 | 87 | 267 | 0.9 | 2.6 | 0.00 | 0.00 | 0.00 | 83 | 1015.3 |
| 20260905152012 | 87 | 273 | 0.9 | 2.6 | 0.00 | 0.00 | 0.00 | 80 | 1015.3 |
| 20260905151735 | 87 | 273 | 0.9 | 2.6 | 0.00 | 0.00 | 0.00 | 80 | 1015.3 |
| 20260905150635 | 88 | 273 | 1.7 | 5.2 | 0.00 | 0.00 | 0.00 | 81 | 1015.3 |
| 20260905145535 | 88 | 239 | 1.7 | 7.0 | 0.00 | 0.00 | 0.00 | 81 | 1015.1 |
| 20260905145005 | 87 | 211 | 1.7 | 4.3 | 0.00 | 0.00 | 0.00 | 82 | 1015.3 |
| 20260905144707 | 87 | 251 | 1.7 | 4.3 | 0.00 | 0.00 | 0.00 | 85 | 1015.2 |
| 20260905144506 | 87 | 251 | 1.7 | 4.3 | 0.00 | 0.00 | 0.00 | 85 | 1015.2 |
| 20260905143935 | 87 | 236 | 1.7 | 7.0 | 0.00 | 0.00 | 0.00 | 84 | 1015.2 |
| 20260905143405 | 86 | 228 | 2.6 | 7.0 | 0.00 | 0.00 | 0.00 | 83 | 1015.2 |
| 20260905142905 | 86 | 244 | 1.7 | 6.1 | 0.00 | 0.00 | 0.00 | 84 | 1015.1 |
| 20260905141305 | 85 | 256 | 1.7 | 4.3 | 0.00 | 0.00 | 0.00 | 87 | 1015.3 |
| 20260905140735 | 85 | 242 | 0.9 | 4.3 | 0.00 | 0.00 | 0.00 | 87 | 1015.3 |
| 20260905135918 | 84 | 243 | 1.7 | 3.5 | 0.00 | 0.00 | 0.00 | 88 | 1015.3 |
| 20260905135706 | 84 | 243 | 1.7 | 3.5 | 0.00 | 0.00 | 0.00 | 88 | 1015.3 |
| 20260905135329 | 84 | 228 | 1.7 | 3.5 | 0.00 | 0.00 | 0.00 | 89 | 1015.4 |
| 20260905135135 | 84 | 228 | 1.7 | 3.5 | 0.00 | 0.00 | 0.00 | 89 | 1015.4 |
| 20260905134404 | 83 | 247 | 1.7 | 4.3 | 0.00 | 0.00 | 0.00 | 90 | 1015.3 |
| 20260905134105 | 83 | 247 | 1.7 | 4.3 | 0.00 | 0.00 | 0.00 | 90 | 1015.3 |
| 20260905133819 | 83 | 233 | 0.9 | 2.6 | 0.00 | 0.00 | 0.00 | 92 | 1015.2 |
| 20260905133535 | 83 | 233 | 0.9 | 2.6 | 0.00 | 0.00 | 0.00 | 92 | 1015.2 |
| 20260905133005 | 82 | 235 | 0.9 | 3.5 | 0.00 | 0.00 | 0.00 | 92 | 1015.3 |
| 20260905132755 | 82 | 234 | 1.7 | 4.3 | 0.00 | 0.00 | 0.00 | 93 | 1015.3 |
| 20260905132435 | 82 | 234 | 1.7 | 4.3 | 0.00 | 0.00 | 0.00 | 93 | 1015.3 |
| 20260905131905 | 82 | 227 | 1.7 | 4.3 | 0.00 | 0.00 | 0.00 | 93 | 1015.3 |
| 20260905130717 | 80 | 241 | 2.6 | 6.1 | 0.00 | 0.00 | 0.00 | 96 | 1015.2 |
| 20260905130713 | 79 | 239 | 1.7 | 5.2 | 0.00 | 0.00 | 0.00 | 96 | 1015.1 |
| 20260905130711 | 86 | 100 | 1.7 | 3.5 | 0.00 | 0.14 | 0.00 | 85 | 1014.7 |
| 20260905130708 | 86 | 85 | 1.7 | 5.2 | 0.00 | 0.16 | 0.00 | 83 | 1014.5 |
| 20260905125805 | 81 | 249 | 1.7 | 4.3 | 0.00 | 0.00 | 0.00 | 95 | 1015.2 |
| 20260905125514 | 80 | 245 | 1.7 | 3.5 | 0.00 | 0.00 | 0.00 | 95 | 1015.2 |
| 20260905125306 | 80 | 245 | 1.7 | 3.5 | 0.00 | 0.00 | 0.00 | 95 | 1015.2 |
| 20260905125036 | 80 | 244 | 2.6 | 6.1 | 0.00 | 0.00 | 0.00 | 95 | 1015.2 |
| 20260905124805 | 80 | 244 | 2.6 | 6.1 | 0.00 | 0.00 | 0.00 | 95 | 1015.2 |
| 20260905124404 | 80 | 241 | 2.6 | 6.1 | 0.00 | 0.00 | 0.00 | 96 | 1015.2 |
| 20260905124235 | 80 | 241 | 2.6 | 6.1 | 0.00 | 0.00 | 0.00 | 96 | 1015.2 |
| 20260905123844 | 79 | 239 | 1.7 | 5.2 | 0.00 | 0.00 | 0.00 | 96 | 1015.1 |
| 20260905123706 | 79 | 239 | 1.7 | 5.2 | 0.00 | 0.00 | 0.00 | 96 | 1015.1 |
| 20260905123650 | 77 | 177 | 0.0 | 1.7 | 0.00 | 0.24 | 0.00 | 100 | 1014.6 |
| 20260905123419 | 79 | 238 | 0.9 | 4.3 | 0.00 | 0.00 | 0.00 | 98 | 1015.2 |
| 20260905123135 | 79 | 238 | 0.9 | 4.3 | 0.00 | 0.00 | 0.00 | 98 | 1015.2 |
| 20260905122853 | 79 | 235 | 0.9 | 2.6 | 0.00 | 0.00 | 0.00 | 98 | 1015.1 |
| 20260905122605 | 79 | 235 | 0.9 | 2.6 | 0.00 | 0.00 | 0.00 | 98 | 1015.1 |
| 20260905122105 | 78 | 229 | 0.9 | 2.6 | 0.00 | 0.00 | 0.00 | 98 | 1015.1 |
| 20260905121830 | 78 | 230 | 0.9 | 1.7 | 0.00 | 0.00 | 0.00 | 98 | 1015.1 |
| 20260905121605 | 78 | 230 | 0.9 | 1.7 | 0.00 | 0.00 | 0.00 | 98 | 1015.1 |
| 20260905120535 | 78 | 241 | 1.7 | 2.6 | 0.00 | 0.00 | 0.00 | 99 | 1014.9 |
| 20260905120035 | 78 | 240 | 1.7 | 3.5 | 0.00 | 0.00 | 0.00 | 99 | 1015.0 |
| 20260905115201 | 77 | 234 | 0.9 | 3.5 | 0.00 | 0.00 | 0.00 | 99 | 1014.8 |
| 20260905115006 | 77 | 234 | 0.9 | 3.5 | 0.00 | 0.00 | 0.00 | 99 | 1014.8 |
| 20260905114705 | 77 | 233 | 0.9 | 2.6 | 0.00 | 0.00 | 0.00 | 99 | 1014.7 |
| 20260905114505 | 77 | 233 | 0.9 | 2.6 | 0.00 | 0.00 | 0.00 | 99 | 1014.7 |
| 20260905114118 | 77 | 244 | 0.9 | 2.6 | 0.00 | 0.00 | 0.00 | 99 | 1014.7 |
| 20260905113935 | 77 | 244 | 0.9 | 2.6 | 0.00 | 0.00 | 0.00 | 99 | 1014.7 |
| 20260905113612 | 77 | 244 | 0.9 | 2.6 | 0.00 | 0.00 | 0.00 | 99 | 1014.7 |
| 20260905113405 | 77 | 244 | 0.9 | 2.6 | 0.00 | 0.00 | 0.00 | 99 | 1014.7 |
| 20260905112905 | 77 | 240 | 1.7 | 3.5 | 0.00 | 0.00 | 0.00 | 99 | 1014.6 |
| 20260905112406 | 77 | 239 | 1.7 | 4.3 | 0.00 | 0.00 | 0.00 | 99 | 1014.6 |
| 20260905111004 | 77 | 238 | 1.7 | 3.5 | 0.00 | 0.00 | 0.00 | 99 | 1014.6 |
| 20260905110805 | 77 | 238 | 1.7 | 3.5 | 0.00 | 0.00 | 0.00 | 99 | 1014.6 |
| 20260905110526 | 77 | 241 | 1.7 | 3.5 | 0.00 | 0.00 | 0.00 | 100 | 1014.7 |
| 20260905110306 | 77 | 241 | 1.7 | 3.5 | 0.00 | 0.00 | 0.00 | 100 | 1014.7 |
| 20260905105929 | 77 | 236 | 0.9 | 2.6 | 0.00 | 0.00 | 0.00 | 99 | 1014.6 |
| 20260905105735 | 77 | 236 | 0.9 | 2.6 | 0.00 | 0.00 | 0.00 | 99 | 1014.6 |
| 20260905105500 | 77 | 237 | 0.9 | 1.7 | 0.00 | 0.00 | 0.00 | 99 | 1014.5 |
| 20260905105236 | 77 | 237 | 0.9 | 1.7 | 0.00 | 0.00 | 0.00 | 99 | 1014.5 |
| 20260905104919 | 77 | 249 | 0.9 | 1.7 | 0.00 | 0.00 | 0.00 | 99 | 1014.5 |
| 20260905104735 | 77 | 249 | 0.9 | 1.7 | 0.00 | 0.00 | 0.00 | 99 | 1014.5 |
| 20260905104205 | 77 | 248 | 0.0 | 1.7 | 0.00 | 0.00 | 0.00 | 99 | 1014.6 |
| 20260905103412 | 77 | 238 | 0.9 | 1.7 | 0.00 | 0.00 | 0.00 | 99 | 1014.5 |
| 20260905103136 | 77 | 238 | 0.9 | 1.7 | 0.00 | 0.00 | 0.00 | 99 | 1014.5 |
| 20260905102635 | 77 | 238 | 0.9 | 1.7 | 0.00 | 0.00 | 0.00 | 99 | 1014.5 |
| 20260905102439 | 77 | 236 | 0.9 | 1.7 | 0.00 | 0.00 | 0.00 | 99 | 1014.3 |
| 20260905102135 | 77 | 236 | 0.9 | 1.7 | 0.00 | 0.00 | 0.00 | 99 | 1014.3 |
| 20260905101804 | 77 | 234 | 0.9 | 1.7 | 0.00 | 0.00 | 0.00 | 98 | 1014.4 |
| 20260905101636 | 77 | 234 | 0.9 | 1.7 | 0.00 | 0.00 | 0.00 | 98 | 1014.4 |
| 20260905101412 | 77 | 234 | 0.9 | 1.7 | 0.00 | 0.00 | 0.00 | 98 | 1014.4 |
| 20260905101135 | 77 | 234 | 0.9 | 1.7 | 0.00 | 0.00 | 0.00 | 98 | 1014.4 |
| 20260905100635 | 77 | 234 | 0.9 | 1.7 | 0.00 | 0.00 | 0.00 | 98 | 1014.3 |
| 20260905100340 | 77 | 232 | 0.0 | 1.7 | 0.00 | 0.00 | 0.00 | 98 | 1014.4 |
| 20260905100105 | 77 | 232 | 0.0 | 1.7 | 0.00 | 0.00 | 0.00 | 98 | 1014.4 |
| 20260905095035 | 77 | 232 | 0.0 | 1.7 | 0.00 | 0.00 | 0.00 | 98 | 1014.3 |
| 20260905093936 | 77 | 243 | 0.9 | 2.6 | 0.00 | 0.00 | 0.00 | 98 | 1014.3 |
| 20260905093648 | 77 | 247 | 0.9 | 1.7 | 0.00 | 0.00 | 0.00 | 98 | 1014.3 |
| 20260905093435 | 77 | 247 | 0.9 | 1.7 | 0.00 | 0.00 | 0.00 | 98 | 1014.3 |
| 20260905092906 | 77 | 247 | 0.9 | 1.7 | 0.00 | 0.00 | 0.00 | 98 | 1014.3 |
| 20260905092405 | 77 | 238 | 0.9 | 1.7 | 0.00 | 0.00 | 0.00 | 99 | 1014.2 |
| 20260905091538 | 77 | 200 | 0.0 | 0.9 | 0.00 | 0.00 | 0.00 | 99 | 1014.2 |
| 20260905091335 | 77 | 200 | 0.0 | 0.9 | 0.00 | 0.00 | 0.00 | 99 | 1014.2 |
| 20260905090836 | 77 | 195 | 0.0 | 0.9 | 0.00 | 0.00 | 0.00 | 99 | 1014.1 |
| 20260905090533 | 77 | 195 | 0.0 | 0.9 | 0.00 | 0.00 | 0.00 | 99 | 1014.0 |
| 20260905090305 | 77 | 195 | 0.0 | 0.9 | 0.00 | 0.00 | 0.00 | 99 | 1014.0 |
| 20260905085735 | 77 | 230 | 0.0 | 1.7 | 0.00 | 0.00 | 0.00 | 99 | 1014.0 |
| 20260905084205 | 77 | 191 | 0.0 | 0.9 | 0.00 | 0.00 | 0.00 | 98 | 1014.0 |
| 20260905083637 | 77 | 0 | 0.0 | 0.0 | 0.00 | 0.00 | 0.00 | 98 | 1014.1 |
| 20260905083105 | 77 | 190 | 0.0 | 0.9 | 0.00 | 0.00 | 0.00 | 98 | 1014.2 |
| 20260905082605 | 77 | 188 | 0.0 | 0.9 | 0.00 | 0.00 | 0.00 | 98 | 1014.3 |
| 20260905082106 | 77 | 187 | 0.0 | 0.9 | 0.00 | 0.00 | 0.00 | 98 | 1014.3 |
| 20260905081715 | 77 | 0 | 0.0 | 0.0 | 0.00 | 0.00 | 0.00 | 98 | 1014.3 |
| 20260905081535 | 77 | 0 | 0.0 | 0.0 | 0.00 | 0.00 | 0.00 | 98 | 1014.3 |
| 20260905081353 | 77 | 187 | 0.0 | 0.9 | 0.00 | 0.00 | 0.00 | 98 | 1014.2 |
| 20260905081035 | 77 | 187 | 0.0 | 0.9 | 0.00 | 0.00 | 0.00 | 98 | 1014.2 |
| 20260905080705 | 77 | 190 | 0.0 | 0.9 | 0.00 | 0.00 | 0.00 | 98 | 1014.2 |
| 20260905080505 | 77 | 190 | 0.0 | 0.9 | 0.00 | 0.00 | 0.00 | 98 | 1014.2 |
| 20260905075109 | 77 | 166 | 0.0 | 0.9 | 0.00 | 0.00 | 0.00 | 98 | 1014.1 |
| 20260905074905 | 77 | 166 | 0.0 | 0.9 | 0.00 | 0.00 | 0.00 | 98 | 1014.1 |
| 20260905074405 | 77 | 173 | 0.0 | 0.9 | 0.00 | 0.00 | 0.00 | 98 | 1014.2 |
| 20260905073022 | 76 | 107 | 0.0 | 1.7 | 0.00 | 0.00 | 0.00 | 97 | 1014.2 |
| 20260905072836 | 76 | 107 | 0.0 | 1.7 | 0.00 | 0.00 | 0.00 | 97 | 1014.2 |
| 20260905071101 | 77 | 217 | 0.0 | 0.9 | 0.00 | 0.00 | 0.00 | 96 | 1014.2 |
| 20260905070835 | 77 | 217 | 0.0 | 0.9 | 0.00 | 0.00 | 0.00 | 96 | 1014.2 |
| 20260905065528 | 77 | 235 | 0.0 | 0.9 | 0.00 | 0.00 | 0.00 | 96 | 1014.4 |
| 20260905065306 | 77 | 235 | 0.0 | 0.9 | 0.00 | 0.00 | 0.00 | 96 | 1014.4 |
| 20260905064502 | 77 | 241 | 0.0 | 0.9 | 0.00 | 0.00 | 0.00 | 96 | 1014.4 |
| 20260905064305 | 77 | 241 | 0.0 | 0.9 | 0.00 | 0.00 | 0.00 | 96 | 1014.4 |
| 20260905063735 | 77 | 0 | 0.0 | 0.0 | 0.00 | 0.00 | 0.00 | 95 | 1014.5 |
| 20260905063444 | 77 | 241 | 0.0 | 0.9 | 0.00 | 0.00 | 0.00 | 95 | 1014.5 |
| 20260905063235 | 77 | 241 | 0.0 | 0.9 | 0.00 | 0.00 | 0.00 | 95 | 1014.5 |
| 20260905062706 | 77 | 241 | 0.0 | 0.9 | 0.00 | 0.00 | 0.00 | 95 | 1014.4 |
| 20260905062135 | 77 | 241 | 0.0 | 0.9 | 0.00 | 0.00 | 0.00 | 95 | 1014.5 |
| 20260905061105 | 78 | 241 | 0.0 | 0.9 | 0.00 | 0.00 | 0.00 | 95 | 1014.5 |
| 20260905060705 | 78 | 241 | 0.0 | 0.9 | 0.00 | 0.00 | 0.00 | 95 | 1014.5 |
| 20260905060535 | 78 | 241 | 0.0 | 0.9 | 0.00 | 0.00 | 0.00 | 95 | 1014.5 |
| 20260905060159 | 78 | 0 | 0.0 | 0.9 | 0.00 | 0.00 | 0.00 | 95 | 1014.6 |
| 20260905060005 | 78 | 0 | 0.0 | 0.9 | 0.00 | 0.00 | 0.00 | 95 | 1014.6 |
| 20260905055614 | 78 | 0 | 0.0 | 0.0 | 0.00 | 0.00 | 0.00 | 95 | 1014.7 |
| 20260905055435 | 78 | 0 | 0.0 | 0.0 | 0.00 | 0.00 | 0.00 | 95 | 1014.7 |
| 20260905054905 | 78 | 265 | 0.0 | 1.7 | 0.00 | 0.00 | 0.00 | 95 | 1014.8 |
| 20260905053805 | 78 | 189 | 0.0 | 1.7 | 0.00 | 0.00 | 0.00 | 95 | 1014.8 |
| 20260905053509 | 78 | 175 | 0.0 | 1.7 | 0.00 | 0.00 | 0.00 | 95 | 1014.9 |
| 20260905053305 | 78 | 175 | 0.0 | 1.7 | 0.00 | 0.00 | 0.00 | 95 | 1014.9 |
| 20260905052458 | 79 | 183 | 0.0 | 0.9 | 0.00 | 0.00 | 0.00 | 95 | 1015.1 |
| 20260905052235 | 79 | 183 | 0.0 | 0.9 | 0.00 | 0.00 | 0.00 | 95 | 1015.1 |
| 20260905051901 | 79 | 183 | 0.0 | 0.9 | 0.00 | 0.00 | 0.00 | 95 | 1015.1 |
| 20260905051735 | 79 | 183 | 0.0 | 0.9 | 0.00 | 0.00 | 0.00 | 95 | 1015.1 |
| 20260905051205 | 79 | 180 | 0.0 | 0.9 | 0.00 | 0.00 | 0.00 | 95 | 1015.2 |
| 20260905050351 | 79 | 176 | 0.0 | 1.7 | 0.00 | 0.00 | 0.00 | 95 | 1015.2 |
| 20260905050135 | 79 | 176 | 0.0 | 1.7 | 0.00 | 0.00 | 0.00 | 95 | 1015.2 |
| 20260905045939 | 80 | 180 | 0.0 | 0.9 | 0.00 | 0.00 | 0.00 | 95 | 1015.3 |
| 20260905045635 | 80 | 180 | 0.0 | 0.9 | 0.00 | 0.00 | 0.00 | 95 | 1015.3 |